GW3533 Weather Reports


Display with metric or nautical units.
time (UTC)temp
F
wind
direction
speed
MPH
gust
MPH
rain 1hr
in
rain 24hr
in
rain mn
in
humidity
%
barometer
mb
20260506212510 77 320 3.0 7.0 0.00 0.00 0.00 71 1010.5
20260506212010 78 40 2.0 7.0 0.00 0.00 0.00 70 1010.5
20260506211527 78 353 2.0 5.0 0.00 0.00 0.00 71 1010.4
20260506211012 78 41 1.0 5.0 0.00 0.00 0.00 72 1010.6
20260506210514 78 18 1.0 5.0 0.00 0.00 0.00 75 1010.4
20260506210029 78 48 2.0 8.0 0.00 0.00 0.00 72 1010.5
20260506205512 78 346 2.0 8.0 0.00 0.00 0.00 74 1010.5
20260506205012 78 0 2.0 8.0 0.00 0.00 0.00 75 1010.4
20260506204528 77 6 2.0 5.0 0.00 0.00 0.00 75 1010.5
20260506204010 77 320 2.0 10.0 0.00 0.00 0.00 75 1010.8
20260506203510 77 24 1.0 10.0 0.00 0.00 0.00 74 1010.7
20260506203030 78 7 2.0 10.0 0.00 0.00 0.00 72 1010.7
20260506202514 80 34 2.0 7.0 0.00 0.00 0.00 69 1010.7
20260506202011 83 5 2.0 5.0 0.00 0.00 0.00 69 1010.6
20260506201541 83 12 0.0 2.0 0.00 0.00 0.00 69 1010.5
20260506201008 83 0 0.0 2.0 0.00 0.00 0.00 72 1010.4
20260506200509 83 0 0.0 0.0 0.00 0.00 0.00 70 1010.5
20260506200028 83 0 0.0 1.0 0.00 0.00 0.00 72 1010.6
20260506195510 83 0 0.0 1.0 0.00 0.00 0.00 71 1010.7
20260506195013 83 3 0.0 1.0 0.00 0.00 0.00 72 1010.6
20260506194534 83 3 0.0 2.0 0.00 0.00 0.00 72 1010.5
20260506194017 83 0 0.0 2.0 0.00 0.00 0.00 72 1010.5
20260506193510 83 0 0.0 2.0 0.00 0.00 0.00 71 1010.5
20260506193030 83 74 0.0 2.0 0.00 0.00 0.00 71 1010.4
20260506192515 83 6 0.0 2.0 0.00 0.00 0.00 71 1010.6
20260506192013 83 73 0.0 3.0 0.00 0.00 0.00 71 1010.5
20260506191528 84 353 0.0 3.0 0.00 0.00 0.00 72 1010.6
20260506191010 84 55 1.0 5.0 0.00 0.00 0.00 70 1010.6
20260506190509 84 116 2.0 5.0 0.00 0.00 0.00 69 1010.8
20260506190029 84 359 1.0 3.0 0.00 0.00 0.00 68 1010.8
20260506185511 84 98 1.0 3.0 0.00 0.00 0.00 69 1010.8
20260506185008 84 6 1.0 3.0 0.00 0.00 0.00 71 1010.9
20260506184531 84 50 1.0 3.0 0.00 0.00 0.00 71 1010.9
20260506184012 83 325 0.0 3.0 0.00 0.00 0.00 71 1010.9
20260506183509 83 0 0.0 3.0 0.00 0.00 0.00 72 1011.0
20260506183028 83 0 0.0 3.0 0.00 0.00 0.00 73 1011.0
20260506182509 83 0 0.0 3.0 0.00 0.00 0.00 72 1011.1
20260506182016 83 0 0.0 3.0 0.00 0.00 0.00 73 1011.1
20260506181530 82 35 1.0 3.0 0.00 0.00 0.00 75 1011.2
20260506181011 81 47 1.0 4.0 0.00 0.00 0.00 77 1011.2
20260506180510 80 346 1.0 4.0 0.00 0.00 0.00 77 1011.3
20260506180028 80 5 1.0 3.0 0.00 0.00 0.00 79 1011.4
20260506175513 79 0 0.0 3.0 0.00 0.00 0.00 79 1011.5
20260506175010 77 16 1.0 3.0 0.00 0.00 0.00 81 1011.5
20260506174529 76 349 0.0 2.0 0.00 0.00 0.00 82 1011.5
20260506174012 75 321 0.0 3.0 0.00 0.00 0.00 82 1011.5
20260506173512 75 24 0.0 3.0 0.00 0.00 0.00 81 1011.6
20260506173029 75 46 1.0 4.0 0.00 0.00 0.00 81 1011.6
20260506172510 76 328 1.0 4.0 0.00 0.00 0.00 79 1011.8
20260506172011 78 11 1.0 4.0 0.00 0.00 0.00 81 1011.8
20260506171539 78 0 0.0 3.0 0.00 0.00 0.00 81 1011.8
20260506171012 78 107 1.0 2.0 0.00 0.00 0.00 81 1011.6
20260506170508 78 119 0.0 2.0 0.00 0.00 0.00 81 1011.8
20260506170030 78 0 0.0 0.0 0.00 0.00 0.00 80 1011.6
20260506165510 78 0 0.0 0.0 0.00 0.00 0.00 81 1011.7
20260506165015 78 0 0.0 0.0 0.00 0.00 0.00 81 1011.8
20260506164527 78 0 0.0 0.0 0.00 0.00 0.00 81 1011.7
20260506164021 78 0 0.0 0.0 0.00 0.00 0.00 80 1011.7
20260506163515 78 0 0.0 3.0 0.00 0.00 0.00 81 1011.9
20260506163038 78 0 0.0 3.0 0.00 0.00 0.00 82 1011.7
20260506162514 78 106 0.0 2.0 0.00 0.00 0.00 82 1011.7
20260506162011 77 109 0.0 2.0 0.00 0.00 0.00 82 1011.6
20260506161533 77 0 0.0 2.0 0.00 0.00 0.00 82 1011.8
20260506161011 77 41 0.0 2.0 0.00 0.00 0.00 83 1011.8
20260506160514 77 0 0.0 0.0 0.00 0.00 0.00 83 1011.7
20260506160030 77 0 0.0 0.0 0.00 0.00 0.00 84 1011.6
20260506155511 77 0 0.0 0.0 0.00 0.00 0.00 84 1011.6
20260506155014 76 0 0.0 0.0 0.00 0.00 0.00 85 1011.6
20260506154537 76 0 0.0 0.0 0.00 0.00 0.00 86 1011.6
20260506154017 75 0 0.0 0.0 0.00 0.00 0.00 86 1011.5
20260506153511 75 0 0.0 0.0 0.00 0.00 0.00 87 1011.3
20260506153029 75 0 0.0 0.0 0.00 0.00 0.00 87 1011.3
20260506152509 75 0 0.0 0.0 0.00 0.00 0.00 88 1011.3
20260506152009 74 0 0.0 0.0 0.00 0.00 0.00 88 1011.2
20260506151532 74 0 0.0 0.0 0.00 0.00 0.00 88 1011.1
20260506151010 74 0 0.0 0.0 0.00 0.00 0.00 89 1011.0
20260506150509 74 0 0.0 0.0 0.00 0.00 0.00 89 1010.8
20260506150031 74 0 0.0 0.0 0.00 0.00 0.00 89 1010.8
20260506145510 74 0 0.0 0.0 0.00 0.00 0.00 90 1010.8
20260506145012 74 0 0.0 0.0 0.00 0.00 0.00 90 1010.7
20260506144529 74 0 0.0 0.0 0.00 0.00 0.00 90 1010.8
20260506144010 73 0 0.0 0.0 0.00 0.00 0.00 90 1010.9
20260506143512 73 0 0.0 0.0 0.00 0.00 0.00 91 1010.9
20260506143030 73 0 0.0 0.0 0.00 0.00 0.00 90 1010.9
20260506142511 73 0 0.0 0.0 0.00 0.00 0.00 90 1011.0
20260506142011 73 0 0.0 0.0 0.00 0.00 0.00 90 1011.0
20260506141527 73 0 0.0 0.0 0.00 0.00 0.00 90 1010.8
20260506141009 73 0 0.0 0.0 0.00 0.00 0.00 90 1010.4
20260506140516 73 0 0.0 0.0 0.00 0.00 0.00 90 1010.4
20260506140030 73 0 0.0 0.0 0.00 0.00 0.00 90 1010.3
20260506135510 73 0 0.0 0.0 0.00 0.00 0.00 90 1010.1
20260506135010 73 0 0.0 0.0 0.00 0.00 0.00 90 1009.9
20260506134528 73 0 0.0 0.0 0.00 0.00 0.00 90 1009.8
20260506134017 73 0 0.0 0.0 0.00 0.00 0.00 90 1009.6
20260506133511 73 0 0.0 0.0 0.00 0.00 0.00 90 1009.6
20260506133029 73 0 0.0 0.0 0.00 0.00 0.00 90 1009.5
20260506132510 73 0 0.0 0.0 0.00 0.00 0.00 90 1009.6
20260506132015 73 0 0.0 1.0 0.00 0.00 0.00 90 1009.4
20260506131529 73 0 0.0 1.0 0.00 0.00 0.00 90 1009.5
20260506131011 73 31 0.0 1.0 0.00 0.00 0.00 90 1009.4
20260506130513 73 25 0.0 2.0 0.00 0.00 0.00 90 1009.3
20260506130028 73 53 0.0 2.0 0.00 0.00 0.00 90 1009.2
20260506125512 73 0 0.0 1.0 0.00 0.00 0.00 90 1009.1
20260506125010 73 0 0.0 0.0 0.00 0.00 0.00 90 1009.0
20260506124528 73 0 0.0 0.0 0.00 0.00 0.00 90 1009.2
20260506124010 73 0 0.0 0.0 0.00 0.00 0.00 90 1009.2
20260506123512 73 0 0.0 0.0 0.00 0.00 0.00 90 1009.1
20260506123030 73 0 0.0 0.0 0.00 0.00 0.00 90 1009.1
20260506122512 73 0 0.0 0.0 0.00 0.00 0.00 90 1009.2
20260506122011 73 0 0.0 0.0 0.00 0.00 0.00 90 1009.2
20260506121528 73 0 0.0 0.0 0.00 0.00 0.00 89 1009.2
20260506121010 73 0 0.0 0.0 0.00 0.00 0.00 89 1009.2
20260506120514 73 0 0.0 0.0 0.00 0.00 0.00 89 1009.2
20260506120033 73 0 0.0 0.0 0.00 0.00 0.00 89 1009.2
20260506115510 73 0 0.0 0.0 0.00 0.00 0.00 89 1009.2
20260506115010 73 0 0.0 0.0 0.00 0.00 0.00 89 1009.2
20260506114529 73 0 0.0 1.0 0.00 0.00 0.00 89 1009.2
20260506114011 73 0 0.0 1.0 0.00 0.00 0.00 89 1009.1
20260506113511 73 0 0.0 2.0 0.00 0.00 0.00 89 1009.1
20260506113029 73 0 0.0 2.0 0.00 0.00 0.00 89 1009.0
20260506112512 73 0 0.0 1.0 0.00 0.00 0.00 89 1009.1
20260506112012 73 0 0.0 1.0 0.00 0.00 0.00 89 1009.1
20260506111530 73 0 0.0 1.0 0.00 0.00 0.00 89 1009.1
20260506111010 73 0 0.0 1.0 0.00 0.00 0.00 89 1009.0
20260506110510 73 0 0.0 1.0 0.00 0.00 0.00 89 1009.0
20260506110030 73 73 0.0 0.0 0.00 0.00 0.00 89 1009.0
20260506105514 73 0 0.0 1.0 0.00 0.00 0.00 89 1009.0
20260506105009 73 0 0.0 2.0 0.00 0.00 0.00 89 1008.9
20260506104528 73 0 0.0 2.0 0.00 0.00 0.00 89 1008.9
20260506104011 73 0 0.0 2.0 0.00 0.00 0.00 89 1008.9
20260506103511 73 0 0.0 2.0 0.00 0.00 0.00 89 1008.9
20260506103032 73 0 0.0 1.0 0.00 0.00 0.00 89 1008.8
20260506102510 73 0 0.0 3.0 0.00 0.00 0.00 89 1008.9
20260506102009 73 207 0.0 3.0 0.00 0.00 0.00 89 1008.9
20260506101528 73 40 0.0 2.0 0.00 0.00 0.00 89 1009.0
20260506101013 73 81 0.0 2.0 0.00 0.00 0.00 89 1009.0
20260506100512 73 126 0.0 2.0 0.00 0.00 0.00 89 1009.0
20260506100033 73 0 0.0 3.0 0.00 0.00 0.00 89 1008.9
20260506095511 73 111 0.0 3.0 0.00 0.00 0.00 89 1008.9
20260506095010 73 256 1.0 3.0 0.00 0.00 0.00 89 1009.0
20260506094528 73 346 0.0 2.0 0.00 0.00 0.00 89 1009.0
20260506094010 73 31 1.0 4.0 0.00 0.00 0.00 89 1008.9
20260506093510 73 265 0.0 4.0 0.00 0.00 0.00 88 1008.9
20260506093047 73 81 0.0 4.0 0.00 0.00 0.00 88 1008.8
20260506092512 73 153 1.0 3.0 0.00 0.00 0.00 88 1008.9
20260506092011 73 0 0.0 3.0 0.00 0.00 0.00 88 1008.6
20260506091528 73 297 0.0 3.0 0.00 0.00 0.00 88 1008.6
20260506091011 73 131 1.0 3.0 0.00 0.00 0.00 88 1008.6
20260506090512 73 157 1.0 4.0 0.00 0.00 0.00 88 1008.6
20260506090027 73 36 1.0 4.0 0.00 0.00 0.00 88 1008.6
20260506085511 73 38 1.0 4.0 0.00 0.00 0.00 88 1008.5
20260506085010 73 0 0.0 4.0 0.00 0.00 0.00 88 1008.7
20260506084527 73 210 1.0 4.0 0.00 0.00 0.00 88 1008.6
20260506084013 73 128 0.0 4.0 0.00 0.00 0.00 88 1008.7
20260506083511 73 284 1.0 4.0 0.00 0.00 0.00 88 1008.7
20260506083034 73 142 1.0 5.0 0.00 0.00 0.00 88 1008.6
20260506082515 73 128 2.0 5.0 0.00 0.00 0.00 88 1008.7
20260506082012 73 77 1.0 4.0 0.00 0.00 0.00 88 1008.8
20260506081528 73 88 1.0 5.0 0.00 0.00 0.00 88 1008.7
20260506081013 73 121 1.0 5.0 0.00 0.00 0.00 88 1008.6
20260506080511 73 134 1.0 5.0 0.00 0.00 0.00 88 1008.6
20260506073514 74 73 1.0 4.0 0.00 0.00 0.00 88 1008.9
20260506073028 74 115 1.0 4.0 0.00 0.00 0.00 88 1009.0
20260506072512 74 103 1.0 4.0 0.00 0.00 0.00 88 1008.9
20260506072018 74 112 1.0 4.0 0.00 0.00 0.00 88 1009.0
20260506071528 74 100 1.0 4.0 0.00 0.00 0.00 88 1009.2
20260506071010 74 240 1.0 3.0 0.00 0.00 0.00 88 1009.1
20260506070512 74 94 1.0 3.0 0.00 0.00 0.00 88 1009.1
20260506062511 74 123 2.0 5.0 0.00 0.00 0.00 88 1009.3
20260506062011 74 125 1.0 3.0 0.00 0.00 0.00 88 1009.4
20260506061530 74 339 1.0 3.0 0.00 0.00 0.00 88 1009.5
20260506061011 74 67 1.0 4.0 0.00 0.00 0.00 88 1009.4
20260506060513 74 54 2.0 4.0 0.00 0.00 0.00 88 1009.4
20260506051009 75 66 1.0 4.0 0.00 0.00 0.00 87 1009.3
20260506050511 75 168 1.0 3.0 0.00 0.00 0.00 87 1009.4
20260506045012 75 0 1.0 3.0 0.00 0.00 0.00 87 1009.1
20260506044533 75 0 0.0 4.0 0.00 0.00 0.00 87 1009.0
20260506044011 75 0 0.0 4.0 0.00 0.00 0.00 87 1009.1
20260506043513 75 0 0.0 1.0 0.00 0.00 0.00 87 1009.1
20260506043030 75 0 0.0 3.0 0.00 0.00 0.00 87 1009.1
20260506042509 75 57 1.0 3.0 0.00 0.00 0.00 87 1009.2
20260506042010 75 36 1.0 3.0 0.00 0.00 0.00 87 1009.1
20260506041530 75 76 1.0 5.0 0.00 0.00 0.00 87 1009.1
20260506041011 75 62 1.0 5.0 0.00 0.00 0.00 87 1009.0
20260506040511 75 12 1.0 5.0 0.00 0.00 0.00 87 1009.0
20260506040030 75 91 1.0 4.0 0.00 0.00 0.00 86 1008.9
20260506035511 75 127 1.0 5.0 0.00 0.00 0.00 86 1008.8
20260506035011 75 0 1.0 5.0 0.00 0.00 0.00 86 1008.7
20260506034528 75 143 1.0 5.0 0.00 0.00 0.00 86 1008.7
20260506034013 75 0 1.0 3.0 0.00 0.00 0.00 86 1008.7
20260506033510 75 66 0.0 2.0 0.00 0.00 0.00 86 1008.7
20260506033033 76 71 0.0 5.0 0.00 0.00 0.00 85 1008.7
20260506032509 76 71 1.0 5.0 0.00 0.00 0.00 85 1008.6
20260506032011 76 58 1.0 5.0 0.00 0.00 0.00 85 1008.4
20260506031530 76 102 1.0 4.0 0.00 0.00 0.00 85 1008.4
20260506031012 76 117 1.0 3.0 0.00 0.00 0.00 85 1008.2
20260506030509 76 0 0.0 2.0 0.00 0.00 0.00 85 1008.2
20260506030030 76 131 1.0 2.0 0.00 0.00 0.00 85 1008.1
20260506025513 76 0 0.0 1.0 0.00 0.00 0.00 84 1008.0
20260506025013 76 43 0.0 1.0 0.00 0.00 0.00 84 1008.0
20260506024529 76 0 0.0 0.0 0.00 0.00 0.00 83 1007.9
20260506024010 77 0 0.0 0.0 0.00 0.00 0.00 83 1007.8
20260506023509 77 0 0.0 0.0 0.00 0.00 0.00 83 1007.7
20260506023027 77 0 0.0 1.0 0.00 0.00 0.00 82 1007.7
20260506022511 77 0 0.0 1.0 0.00 0.00 0.00 82 1007.6
20260506022009 77 73 0.0 4.0 0.00 0.00 0.00 82 1007.6
20260506021530 77 89 0.0 4.0 0.00 0.00 0.00 82 1007.5
20260506021010 77 0 0.0 0.0 0.00 0.00 0.00 82 1007.5
20260506020512 77 0 0.0 0.0 0.00 0.00 0.00 82 1007.5
20260506020100 77 0 0.0 0.0 0.00 0.00 0.00 82 1007.4
20260506015512 77 0 0.0 2.0 0.00 0.00 0.00 82 1007.3
20260506015016 78 0 0.0 2.0 0.00 0.00 0.00 81 1007.2
20260506014528 78 80 0.0 2.0 0.00 0.00 0.00 81 1007.0
20260506014008 78 0 0.0 1.0 0.00 0.00 0.00 81 1007.0
20260506013518 78 25 0.0 0.0 0.00 0.00 0.00 81 1006.9
20260506013030 78 25 0.0 0.0 0.00 0.00 0.00 81 1006.9
20260506012511 78 0 0.0 0.0 0.00 0.00 0.00 80 1006.8
20260506012012 79 0 0.0 0.0 0.00 0.00 0.00 80 1006.9
20260506011528 79 25 0.0 1.0 0.00 0.00 0.00 80 1007.0
20260506011010 79 0 0.0 1.0 0.00 0.00 0.00 80 1006.9
20260506010510 79 20 0.0 1.0 0.00 0.00 0.00 80 1006.9
20260506010031 79 0 0.0 0.0 0.00 0.00 0.00 79 1006.9
20260506005517 80 0 0.0 0.0 0.00 0.00 0.00 79 1006.9
20260506005009 80 0 0.0 0.0 0.00 0.00 0.00 78 1006.9
20260506004527 80 0 0.0 0.0 0.00 0.00 0.00 78 1007.0
20260506004012 80 0 0.0 0.0 0.00 0.00 0.00 77 1006.9
20260506003509 81 0 0.0 0.0 0.00 0.00 0.00 77 1006.7
20260506003028 81 0 0.0 0.0 0.00 0.00 0.00 75 1006.7
20260506002510 82 0 0.0 0.0 0.00 0.00 0.00 74 1006.7
20260506002011 82 0 0.0 0.0 0.00 0.00 0.00 73 1006.8
20260506001528 82 0 0.0 0.0 0.00 0.00 0.00 73 1006.6
20260506001011 82 0 0.0 0.0 0.00 0.00 0.00 73 1006.6
20260506000511 82 0 0.0 1.0 0.00 0.00 0.00 72 1006.6
20260506000043 83 0 0.0 1.0 0.00 0.00 0.00 73 1006.6
20260505235511 83 39 0.0 0.0 0.00 0.00 0.00 72 1006.6
20260505235012 83 0 0.0 1.0 0.00 0.00 0.00 71 1006.5
20260505234532 83 0 0.0 1.0 0.00 0.00 0.00 70 1006.6
20260505234012 84 11 0.0 1.0 0.00 0.00 0.00 70 1006.4
20260505233513 84 6 0.0 1.0 0.00 0.00 0.00 71 1006.4
20260505233028 84 0 0.0 2.0 0.00 0.00 0.00 70 1006.4
20260505232514 83 0 0.0 3.0 0.00 0.00 0.00 70 1006.5
20260505232011 83 227 1.0 3.0 0.00 0.00 0.00 70 1006.4
20260505231532 84 98 1.0 3.0 0.00 0.00 0.00 69 1006.5
20260505231011 84 170 0.0 1.0 0.00 0.00 0.00 70 1006.4
20260505230509 83 164 0.0 2.0 0.00 0.00 0.00 70 1006.3
20260505230041 83 337 0.0 2.0 0.00 0.00 0.00 71 1006.2
20260505225511 83 0 0.0 2.0 0.00 0.00 0.00 71 1006.2
20260505225014 83 146 0.0 3.0 0.00 0.00 0.00 71 1006.2
20260505224528 83 102 0.0 4.0 0.00 0.00 0.00 72 1006.2
20260505224012 83 106 0.0 4.0 0.00 0.00 0.00 71 1006.1
20260505223509 83 129 1.0 4.0 0.00 0.00 0.00 71 1006.2
20260505223034 83 0 0.0 3.0 0.00 0.00 0.00 70 1006.4
20260505222515 83 165 1.0 4.0 0.00 0.00 0.00 71 1006.5
20260505222015 83 0 0.0 4.0 0.00 0.00 0.00 71 1006.4
20260505221529 83 118 1.0 4.0 0.00 0.00 0.00 70 1006.4
20260505221012 84 39 1.0 4.0 0.00 0.00 0.00 70 1006.5
20260505220510 84 0 0.0 3.0 0.00 0.00 0.00 70 1006.5
20260505220029 84 358 1.0 3.0 0.00 0.00 0.00 69 1006.6
20260505215510 84 83 1.0 3.0 0.00 0.00 0.00 70 1006.5
20260505215011 83 112 1.0 5.0 0.00 0.00 0.00 69 1006.5
20260505214530 83 92 1.0 5.0 0.00 0.00 0.00 70 1006.7
20260505214011 83 114 1.0 3.0 0.00 0.00 0.00 69 1006.7
20260505213512 84 39 1.0 3.0 0.00 0.00 0.00 69 1006.9
20260505213030 84 166 1.0 5.0 0.00 0.00 0.00 68 1007.0